Simultaneous Nadir Overpasses (SNOs) Predictions

Prediction of SNOs between LANDSAT-8 and NPP Satellite Orbit:

Table of predicted SNOs for the next 14.0 days since TLE Epoch: 10/12/2014
Index Date (LANDSAT-8) Time (LANDSAT-8) Lat,Lon (LANDSAT-8) SZA (LANDSAT-8 ) Date (NPP) Time (NPP) Lat,Lon (NPP) SZA (NPP ) Distance(km) Time Diff (sec)
1 10/13/2014 01:12:18 70.81, 159.39 78.38 10/13/2014 01:11:45 70.81, 159.36 78.39 1.60 33
2 10/13/2014 02:01:48 -70.69, -33.15 101.73 10/13/2014 02:02:26 -70.68, -33.10 101.74 2.13 38
3 10/15/2014 16:39:17 -71.19, 108.21 100.26 10/15/2014 16:38:06 -71.23, 107.11 100.22 39.77 71
4 10/15/2014 17:28:50 70.76, -84.80 79.33 10/15/2014 17:28:43 70.74, -84.76 79.31 3.03 7
5 10/15/2014 18:18:20 -70.65, 82.66 100.77 10/15/2014 18:19:25 -70.65, 82.70 100.77 1.38 65
6 10/18/2014 08:55:56 -70.82,-136.50 99.65 10/18/2014 08:54:58 -70.84,-136.47 99.62 3.02 58
7 10/18/2014 09:45:23 70.72, 31.00 80.27 10/18/2014 09:45:42 70.72, 31.03 80.28 1.33 19
8 10/18/2014 10:35:04 -70.01,-162.41 100.44 10/18/2014 10:36:12 -70.00,-160.51 100.43 72.18 68
9 10/21/2014 01:12:28 -70.82, -20.63 98.68 10/21/2014 01:11:56 -70.82, -20.69 98.68 2.02 32
10 10/21/2014 02:01:55 70.72, 146.86 81.24 10/21/2014 02:02:40 70.71, 146.81 81.23 2.32 45
11 10/23/2014 16:39:29 71.09, -71.98 82.53 10/23/2014 16:38:17 71.12, -72.74 82.56 27.53 72
12 10/23/2014 17:29:03 -70.76, 95.14 97.79 10/23/2014 17:28:54 -70.76, 95.18 97.80 1.59 9
13 10/23/2014 18:18:30 70.67, -97.36 82.13 10/23/2014 18:19:38 70.65, -97.33 82.12 2.04 68
14 10/26/2014 08:56:08 70.86, 43.52 83.23 10/26/2014 08:55:11 70.86, 43.47 83.22 2.18 57
15 10/26/2014 09:45:38 -70.76,-149.01 96.87 10/26/2014 09:45:53 -70.75,-149.04 96.88 1.39 15




NCC Satellite Simultaneous Nadir Overpasses (SNOs) Prediction Service
